Change the Weather History Date:

Saturday, March 2, 2013

  Actual Average (KACT) Record (KACT)
Temperature  
Mean Temperature 42 °F 54 °F  
Max Temperature 55 °F 65 °F 90 °F (1904)
Min Temperature 28 °F 44 °F 17 °F (1980)
Degree Days  
Heating Degree Days 24 11  
Month to date heating degree days 22  
Since 1 July heating degree days 1834  
Cooling Degree Days 0 1  
Month to date cooling degree days 1  
Year to date cooling degree days 10  
Moisture  
Dew Point 24 °F    
Average Humidity 54    
Maximum Humidity 81    
Minimum Humidity 26    
Precipitation  
Precipitation 0.00 in 0.11 in 1.40 in (1934)
Month to date precipitation 0.22  
Year to date precipitation 4.97  
Snow  
Snow 0.00 in 0.00 in 0.40 in (1931)
Month to date snowfall 0.0  
Since 1 July snowfall 0.9  
Snow Depth -    
Sea Level Pressure  
Sea Level Pressure 30.33 in    
Wind  
Wind Speed 10 mph (North)    
Max Wind Speed 18 mph    
Max Gust Speed 26 mph    
Visibility 10 miles    
Events      
T = Trace of Precipitation, MM = Missing Value Source: NWS Daily Summary

Daily Weather History Graph

Daily Weather History Graph

Search for Another Location

Airport or City:

Trip Planner

Search our weather history database for the weather conditions in past years. The results will help you decide how hot, cold, wet, or windy it might be!

Date:

Astronomy

Mar. 02, 2013 Rise Set
Actual Time 6:54 AM CST 6:27 PM CST
Civil Twilight 6:29 AM CST 6:51 PM CST
Nautical Twilight 6:01 AM CST 7:20 PM CST
Astronomical Twilight 5:33 AM CST 7:48 PM CST
Moon 11:45 PM CST (3/2) 9:44 AM CST (3/2)
Length of Visible Light 12h 21m
Length of Day
11h 32m
Waning Gibbous, 74% of the Moon is Illuminated
Mar 2
Waning Gibbous
Mar 4
Last Quarter
Mar 11
New
Mar 19
First Quarter
Mar 27
Full

Hourly Weather History & Observations

Time (CST) Temp. Windchill Dew Point Humidity Pressure Visibility Wind Dir Wind Speed Gust Speed Precip Events Conditions
12:35 AM 33.8 °F 27.7 °F 28.4 °F 81% 30.30 in 10.0 mi NNW 6.9 mph - N/A   Clear
12:55 AM 37.4 °F 30.3 °F 28.4 °F 70% 30.32 in 10.0 mi NNW 10.4 mph - N/A   Clear
1:15 AM 37.4 °F 29.3 °F 28.4 °F 70% 30.32 in 10.0 mi NNW 12.7 mph - N/A   Clear
1:35 AM 37.4 °F 29.3 °F 28.4 °F 70% 30.32 in 10.0 mi NNW 12.7 mph - N/A   Clear
1:55 AM 37.4 °F 28.9 °F 28.4 °F 70% 30.32 in 10.0 mi NNW 13.8 mph - N/A   Clear
2:15 AM 37.4 °F 28.5 °F 28.4 °F 70% 30.32 in 10.0 mi NNW 15.0 mph 19.6 mph N/A   Clear
2:35 AM 35.6 °F 27.1 °F 28.4 °F 75% 30.33 in 10.0 mi NNW 12.7 mph - N/A   Clear
2:55 AM 33.8 °F 25.8 °F 28.4 °F 81% 30.32 in 10.0 mi NNW 10.4 mph - N/A   Clear
3:15 AM 33.8 °F 25.3 °F 28.4 °F 81% 30.32 in 10.0 mi NNW 11.5 mph - N/A   Clear
3:35 AM 33.8 °F 25.8 °F 26.6 °F 75% 30.33 in 10.0 mi NNW 10.4 mph - N/A   Clear
3:55 AM 32.0 °F 24.2 °F 26.6 °F 80% 30.34 in 10.0 mi NNW 9.2 mph - N/A   Clear
4:15 AM 32.0 °F 23.6 °F 26.6 °F 80% 30.34 in 10.0 mi NNW 10.4 mph - N/A   Clear
4:35 AM 32.0 °F 23.6 °F 26.6 °F 80% 30.34 in 10.0 mi North 10.4 mph - N/A   Clear
4:55 AM 32.0 °F 25.6 °F 26.6 °F 80% 30.35 in 10.0 mi NNW 6.9 mph - N/A   Clear
5:15 AM 32.0 °F 26.4 °F 24.8 °F 75% 30.36 in 10.0 mi NW 5.8 mph - N/A   Clear
5:35 AM 30.2 °F - 24.8 °F 80% 30.37 in 10.0 mi Calm Calm - N/A   Clear
5:55 AM 30.2 °F - 23.0 °F 75% 30.37 in 10.0 mi Calm Calm - N/A   Clear
6:15 AM 30.2 °F - 23.0 °F 75% 30.38 in 10.0 mi Calm Calm - N/A   Clear
6:35 AM 30.2 °F 26.7 °F 23.0 °F 75% 30.38 in 10.0 mi North 3.5 mph - N/A   Clear
6:55 AM 28.4 °F 22.2 °F 23.0 °F 80% 30.39 in 10.0 mi NNW 5.8 mph - N/A   Clear
7:15 AM 30.2 °F 24.3 °F 23.0 °F 75% 30.39 in 10.0 mi North 5.8 mph - N/A   Clear
7:35 AM 30.2 °F 24.3 °F 24.8 °F 80% 30.40 in 7.0 mi NNW 5.8 mph - N/A   Clear
7:55 AM 32.0 °F 25.6 °F 26.6 °F 80% 30.41 in 10.0 mi NNW 6.9 mph - N/A   Clear
8:15 AM 33.8 °F 24.8 °F 26.6 °F 75% 30.42 in 10.0 mi NNW 12.7 mph - N/A   Clear
8:35 AM 35.6 °F 25.5 °F 26.6 °F 70% 30.43 in 10.0 mi North 17.3 mph - N/A   Clear
8:55 AM 35.6 °F 25.5 °F 26.6 °F 70% 30.43 in 10.0 mi NNW 17.3 mph 23.0 mph N/A   Clear
9:15 AM 35.6 °F 25.2 °F 26.6 °F 70% 30.43 in 10.0 mi NNW 18.4 mph 26.5 mph N/A   Clear
9:35 AM 37.4 °F 27.8 °F 26.6 °F 65% 30.43 in 10.0 mi NNW 17.3 mph 25.3 mph N/A   Clear
9:55 AM 37.4 °F 28.9 °F 24.8 °F 60% 30.43 in 10.0 mi NNW 13.8 mph 23.0 mph N/A   Clear
10:15 AM 39.2 °F 30.5 °F 26.6 °F 61% 30.43 in 10.0 mi North 16.1 mph - N/A   Clear
10:35 AM 41.0 °F 32.8 °F 24.8 °F 53% 30.43 in 10.0 mi NNW 16.1 mph 20.7 mph N/A   Clear
10:55 AM 42.8 °F 36.2 °F 24.8 °F 49% 30.43 in 10.0 mi NNW 12.7 mph 18.4 mph N/A   Clear
11:15 AM 42.8 °F 35.4 °F 23.0 °F 46% 30.42 in 10.0 mi North 15.0 mph 23.0 mph N/A   Clear
11:35 AM 42.8 °F 36.2 °F 23.0 °F 46% 30.41 in 10.0 mi North 12.7 mph 18.4 mph N/A   Clear
11:55 AM 44.6 °F 38.1 °F 23.0 °F 43% 30.41 in 10.0 mi NNW 13.8 mph - N/A   Clear
12:35 PM 46.4 °F 39.8 °F 19.4 °F 34% 30.39 in 10.0 mi NW 16.1 mph 20.7 mph N/A   Clear
12:55 PM 48.2 °F - 21.2 °F 34% 30.37 in 10.0 mi NNW 16.1 mph - N/A   Clear
1:15 PM 50.0 °F - 21.2 °F 32% 30.36 in 10.0 mi WNW 15.0 mph 20.7 mph N/A   Clear
1:35 PM 51.8 °F - 23.0 °F 33% 30.35 in 10.0 mi NNW 16.1 mph 24.2 mph N/A   Clear
1:55 PM 51.8 °F - 21.2 °F 30% 30.34 in 10.0 mi WNW 16.1 mph 19.6 mph N/A   Clear
2:15 PM 51.8 °F - 21.2 °F 30% 30.33 in 10.0 mi NW 10.4 mph 18.4 mph N/A   Clear
2:35 PM 53.6 °F - 21.2 °F 28% 30.31 in 10.0 mi NNW 13.8 mph 20.7 mph N/A   Clear
2:55 PM 53.6 °F - 21.2 °F 28% 30.30 in 10.0 mi NW 11.5 mph 16.1 mph N/A   Clear
3:15 PM 53.6 °F - 21.2 °F 28% 30.30 in 10.0 mi NW 12.7 mph 17.3 mph N/A   Clear
3:35 PM 53.6 °F - 21.2 °F 28% 30.29 in 10.0 mi NNW 9.2 mph - N/A   Clear
3:55 PM 55.4 °F - 21.2 °F 26% 30.28 in 10.0 mi NNW 11.5 mph 16.1 mph N/A   Clear
4:15 PM 55.4 °F - 23.0 °F 29% 30.28 in 10.0 mi WNW 11.5 mph 18.4 mph N/A   Clear
4:35 PM 53.6 °F - 21.2 °F 28% 30.28 in 10.0 mi NNW 5.8 mph 10.4 mph N/A   Clear
4:55 PM 55.4 °F - 23.0 °F 29% 30.27 in 10.0 mi North 10.4 mph - N/A   Clear
5:15 PM 53.6 °F - 23.0 °F 30% 30.28 in 10.0 mi North 8.1 mph - N/A   Clear
5:35 PM 53.6 °F - 23.0 °F 30% 30.27 in 10.0 mi NNW 8.1 mph - N/A   Clear
5:55 PM 53.6 °F - 23.0 °F 30% 30.27 in 10.0 mi NNW 4.6 mph - N/A   Clear
6:15 PM 51.8 °F - 23.0 °F 33% 30.27 in 10.0 mi NE 5.8 mph - N/A   Clear
6:35 PM 48.2 °F - 23.0 °F 37% 30.27 in 10.0 mi NNE 5.8 mph - N/A   Clear
6:55 PM 46.4 °F 44.3 °F 24.8 °F 43% 30.27 in 10.0 mi NE 4.6 mph - N/A   Clear
7:15 PM 46.4 °F 43.5 °F 23.0 °F 40% 30.27 in 10.0 mi NE 5.8 mph - N/A   Clear
7:35 PM 46.4 °F 42.9 °F 23.0 °F 40% 30.27 in 10.0 mi ENE 6.9 mph - N/A   Clear
7:55 PM 44.6 °F 41.4 °F 23.0 °F 43% 30.27 in 10.0 mi ENE 5.8 mph - N/A   Clear
8:15 PM 44.6 °F 41.4 °F 23.0 °F 43% 30.27 in 10.0 mi ENE 5.8 mph - N/A   Clear
8:35 PM 42.8 °F 38.6 °F 23.0 °F 46% 30.26 in 10.0 mi East 6.9 mph - N/A   Clear
8:55 PM 44.6 °F 40.2 °F 24.8 °F 46% 30.26 in 10.0 mi East 8.1 mph - N/A   Clear
9:15 PM 42.8 °F 38.0 °F 23.0 °F 46% 30.26 in 10.0 mi East 8.1 mph - N/A   Clear
9:35 PM 42.8 °F 38.0 °F 23.0 °F 46% 30.27 in 10.0 mi East 8.1 mph - N/A   Clear
9:55 PM 42.8 °F 38.0 °F 23.0 °F 46% 30.26 in 10.0 mi ESE 8.1 mph - N/A   Clear
10:15 PM 42.8 °F 38.0 °F 23.0 °F 46% 30.26 in 10.0 mi East 8.1 mph - N/A   Clear
10:35 PM 42.8 °F 38.0 °F 23.0 °F 46% 30.26 in 10.0 mi ESE 8.1 mph - N/A   Clear
10:55 PM 42.8 °F 38.0 °F 23.0 °F 46% 30.25 in 10.0 mi East 8.1 mph - N/A   Clear
11:15 PM 42.8 °F 37.5 °F 23.0 °F 46% 30.25 in 10.0 mi East 9.2 mph - N/A   Clear
11:35 PM 42.8 °F 37.0 °F 23.0 °F 46% 30.24 in 10.0 mi ESE 10.4 mph - N/A   Clear
11:55 PM 42.8 °F 38.6 °F 21.2 °F 42% 30.25 in 10.0 mi ESE 6.9 mph - N/A   Clear